Reflectivity
-20 -20 -20 -20 -20 -20 -20 -20 -20 -15 5 5 -20 -17 9 -18 -20 -20 -18 21 42 43 34 13 14 13 5 7 -3 -20 -20 -20 -20 -20 -20 -20 -20 -20 4 -20 -20 -20 -20 -20 -20 -20 -20 -20 -20
-20 -20 -20 -20 -20 -20 -20 10 -12 -2 4 -20 -19 3 14 10 11 -20 -20 7 22 25 18 12 16 -13 -20 -5 -16 -20 -20 -20 -20 -20 -20 -20 -20 10 -20 -20 -20 -20 -20 -20 -20 -20 -20 -20 -20
-20 -20 -20 -20 -20 -20 -9 1 8 -20 -14 -20 -20 2 7 37 31 21 -13 4 9 37 30 4 37 17 7 -13 1 -20 -20 -20 -20 -20 -20 -20 -20 -20 11 -3 -20 -20 -20 -20 -20 -20 -20 -20 -20
-20 -20 -20 -20 -20 -20 -20 -12 -20 -20 -20 -20 -20 -17 17 21 -6 20 21 4 31 1 -6 21 28 38 19 24 18 -1 -20 -20 -20 -20 -20 -20 -20 -20 -19 -20 -20 -20 -20 -20 -20 -20 -20 -20 -20
-20 -20 -20 -20 -18 2 -20 -20 -20 -20 -20 -20 -17 -19 33 46 28 -3 5 2 -15 -8 -17 -0 32 35 14 3 17 -20 -20 -20 -20 -20 -20 -20 -20 -20 17 -20 5 -20 -20 -20 -20 -20 -20 -20 -20
-20 -20 -20 -20 -20 -20 -20 -20 -18 -20 -20 -20 -10 -18 7 26 16 8 8 2 -1 6 29 1 -1 25 1 10 -7 -19 -20 -1 -16 -20 -20 -20 -20 -20 -20 -20 -20 -20 -20 -20 -20 -20 -20 -20 -20
-20 -20 -20 -20 -20 -20 -20 -17 15 -5 38 20 4 25 41 4 7 9 20 -16 -8 23 6 -19 -9 3 26 21 10 8 3 -20 -1 -17 2 -20 -20 -20 -20 -20 -20 -20 -20 -20 -20 -20 -20 -20 -20
-20 -20 -20 -16 -20 -20 -7 1 -2 -19 -1 37 29 0 11 14 -11 -18 -4 12 8 15 -2 -8 29 30 42 26 29 18 14 6 -10 -20 -19 -20 -13 -17 -19 -20 -20 -20 -20 -20 -20 -20 -20 -20 -20
-20 -20 -20 -14 -20 -20 -20 4 19 13 -7 36 12 47 14 18 24 -0 -14 -11 0 25 16 -2 14 16 12 36 38 28 10 26 -7 -1 -9 8 22 14 11 -20 -20 -20 -20 -20 -20 -20 -20 -20 -20
-20 -20 -18 -14 -20 -20 -20 -20 -17 -2 27 -13 15 1 -9 13 0 30 -20 13 -1 10 11 11 20 13 -5 -1 20 34 35 -4 -0 20 7 25 14 16 14 -20 -20 -20 -20 -19 -20 -20 -20 -20 -20
-20 -20 -20 -20 -20 -20 -20 -12 19 31 -17 -7 -2 15 -4 -2 -17 -7 -13 25 -10 28 21 6 28 -1 -8 -20 2 24 27 23 9 28 20 14 21 26 11 -10 3 11 12 -7 -20 -20 -20 -20 -20
-20 -20 -20 -20 -20 -20 -20 15 18 33 -20 -20 -20 -6 -3 -20 -20 -20 -18 -7 14 16 24 7 25 20 24 -5 27 8 28 27 20 22 -0 7 25 20 0 11 8 18 7 -20 -20 -20 -20 -20 -20
-20 -20 -20 -20 -20 -20 -20 1 32 0 -8 -20 -20 -20 -20 -19 -20 -20 -20 -13 -4 13 11 29 2 -7 -0 8 5 18 30 30 33 19 12 18 16 15 -0 2 5 -1 -20 -20 -20 -20 -20 -20 -20
-20 -20 -20 -20 -20 -20 -20 -1 21 41 26 -20 -20 -20 -20 -20 -20 -15 -16 -16 -9 26 10 17 20 21 27 28 36 37 36 22 -10 -6 20 1 5 7 -20 1 -3 -15 -20 -20 -20 -20 -20 -20 -20
-20 -20 -20 -13 -20 -20 -20 -16 8 35 23 -20 -20 -20 -20 -20 -20 -19 -20 -20 -20 6 13 25 16 16 28 27 31 29 4 1 6 24 -5 11 13 7 -7 -20 -20 -20 -20 -20 -20 -20 -20 -20 -20
-20 -20 -20 -20 -20 -6 3 1 13 -12 26 -20 -20 -20 -20 -20 -20 -20 -20 -20 -20 -20 -20 -17 2 10 26 24 21 26 26 18 18 1 5 5 7 -20 -19 -20 2 -20 -20 -20 -20 -20 -20 -20 -20
-20 -20 -20 -19 -20 -20 1 15 29 -13 20 -20 -20 -20 -20 -20 -20 -20 -20 -20 -20 -20 -20 -20 -20 -8 5 13 7 1 1 -4 -18 -20 -6 -3 -20 -3 -20 -20 -20 -20 -20 -20 -20 -20 -20 -20 -20
-6 -6 -20 -20 -19 -20 -20 -4 -11 26 -14 -20 -20 -20 -20 -20 -20 -20 -20 -20 -20 -20 -20 -20 -20 -20 -12 -9 -20 -20 -20 -20 -20 -19 -13 -20 -19 -20 -20 -20 -20 -20 -20 -20 -20 -20 -20 -20 -20
-20 -20 -20 9 -20 -20 -20 9 28 -19 -19 -20 -20 -20 -20 -20 -20 -20 -20 -20 -20 -20 -20 -20 -20 -20 -9 -10 -16 -20 -9 -14 -9 -15 -3 -0 -18 0 -20 -20 -20 -20 -20 -20 -20 -20 -20 -20 -20
-20 -20 -20 5 4 -20 -20 -20 -20 -14 44 -6 -20 -20 -20 -20 -20 -20 -20 -20 -1 -17 -20 -20 -20 -20 -20 -20 -15 -9 -20 -20 -18 -19 -4 -20 -20 -20 21 32 -20 -20 -20 -20 -20 -20 -20 -20 -20
-20 -20 -20 -13 -20 -20 -20 -20 -20 -20 12 -18 -20 -20 -20 -20 -20 -20 -20 -20 -20 -20 -16 -20 -20 -20 -20 -20 -19 -20 -20 -20 -20 -20 -20 -20 -20 -20 -20 -20 -20 -20 -20 -20 -20 -20 -20 -20 -20
-20 -20 -20 -20 -20 -20 -20 -20 -20 -20 -14 -20 -20 -20 -20 -20 -20 -20 -20 -20 -20 -20 -20 -20 -20 -20 -20 -20 -20 2 -20 -20 -20 -20 -20 -20 -20 -20 -20 -20 -20 -20 -20 -20 -20 -20 -20 -20 16
-20 -20 -20 -20 -20 -20 4 -20 -20 -14 -20 -20 -20 -20 -20 -20 -20 -20 -20 -20 -20 -20 -20 -20 -20 -20 -20 -20 -20 11 -20 -20 -20 -20 -20 -20 -20 -20 -20 -20 -20 -20 -20 -19 -7 -20 -20 -20 -20
-20 -20 -20 -20 -20 -20 -20 -10 -20 3 -20 10 12 -20 -20 -20 -20 -20 -20 -20 -20 -20 -20 -20 -20 -20 -20 -20 -20 -20 -3 -20 -20 -20 -20 -20 -20 -20 -20 -20 -20 -20 -20 2 12 15 -6 8 32
-20 -20 -20 -20 -20 -20 -17 -20 -20 -20 -9 13 7 -16 -20 -20 -20 -20 -20 -20 -20 -20 -20 -20 -20 -20 -20 -20 -20 -20 -20 -18 4 -20 -20 -9 -8 -20 12 -0 8 -20 -20 -20 -9 4 -16 -12 16
-20 -20 -20 -4 1 -4 -7 -20 22 -14 -14 -0 -19 -16 -20 -20 -20 -20 -20 -20 -20 -20 -20 -20 -20 -20 -20 -20 -20 4 13 1 13 34 -19 22 -20 -20 -20 18 22 -20 -20 -15 15 -20 -17 15 25
-8 -20 -20 -20 -20 -19 -16 -15 -20 -20 -20 -20 -20 -20 -20 -20 -20 -20 -20 -20 -20 -20 -20 -20 -20 -20 -20 -20 4 -19 -10 -19 28 29 7 24 -13 -13 -20 30 27 19 14 -16 14 6 -1 12 15
-20 -13 -10 -20 -7 11 -20 -20 11 1 -20 -20 -20 -20 -20 -20 -20 -20 -20 -20 -20 -20 -20 -20 -20 -20 -20 -20 -20 -20 -20 -20 -18 34 -6 -18 -12 4 29 13 16 -15 -19 -4 -2 -18 17 22 15
-20 -20 -13 -19 -20 -20 -20 -19 -5 27 17 -20 -20 -20 -20 -20 -20 -20 -20 -20 -20 -20 -20 -20 -20 -20 -5 2 29 23 33 29 -20 -20 -20 15 -18 8 -17 0 -14 -20 -15 -8 -9 19 13 9 34
-20 -20 -20 -20 -20 -20 -20 -20 11 10 4 -20 -20 -20 -20 -20 -20 -20 -20 -20 -20 -20 -20 -20 -20 -20 -11 -2 32 10 -2 8 -12 16 27 24 19 12 19 -2 -20 -20 -4 -10 0 -20 27 5 25
Wind_Speed
10 11 9 10 8 8 17 19 21 21 1 12 13 9 3 2 7 5 3 7 19 11 11 15 17 20 21 20 21 21 22 21 21 21 20 20 18 18 21 22 21 21 22 23 23 22 21 18 14
11 15 8 9 10 14 13 10 21 7 9 14 12 6 12 6 7 6 3 8 18 7 13 13 18 20 20 19 20 20 21 21 21 21 20 19 18 18 21 22 21 21 21 22 22 21 19 16 12
11 15 8 11 13 14 16 9 2 15 7 5 11 21 7 6 8 9 8 14 14 18 12 13 18 22 21 20 19 19 19 20 20 21 20 20 18 18 20 21 22 21 21 22 21 20 17 13 10
8 9 8 10 15 16 13 3 4 10 13 5 8 6 9 1 4 3 8 13 12 8 13 20 14 17 21 20 19 19 18 19 20 20 19 19 18 18 19 20 20 21 21 21 20 18 15 11 10
9 8 11 15 15 22 7 8 10 8 15 5 4 10 12 8 7 10 4 11 10 10 12 13 20 15 19 18 19 19 18 18 19 18 18 18 18 18 17 19 19 21 20 20 19 17 14 11 10
10 12 13 11 10 7 2 18 24 14 15 11 4 5 7 5 10 10 11 9 12 8 13 14 17 14 17 18 16 15 17 18 18 17 18 18 18 19 19 20 20 20 18 17 16 15 13 11 9
13 12 15 15 10 10 9 9 23 5 17 18 23 4 11 10 12 10 11 10 12 11 13 11 14 15 14 14 13 11 15 16 15 18 18 18 19 20 21 21 20 19 18 17 16 14 11 10 8
9 11 20 14 4 3 8 22 26 16 4 19 18 7 6 5 9 9 11 12 11 10 15 13 11 12 14 9 14 14 16 16 18 19 18 17 18 20 20 18 19 18 17 16 15 13 12 10 6
12 12 12 16 7 4 7 8 9 25 7 6 16 10 8 12 8 12 11 12 10 6 12 12 14 12 11 16 11 11 16 14 18 18 18 11 9 13 14 14 16 17 16 15 14 13 12 9 4
10 11 16 7 7 12 12 3 0 4 15 6 9 9 8 8 9 11 10 9 7 6 8 11 12 14 14 11 13 9 6 5 7 9 7 6 8 9 11 11 14 13 14 13 12 11 11 9 4
13 13 10 12 8 8 13 9 18 20 3 4 5 6 7 4 10 13 11 9 9 8 7 10 9 10 13 11 8 4 4 3 1 5 7 7 8 8 6 5 5 4 7 4 4 5 3 4 5
8 15 12 12 9 8 9 16 10 18 11 11 12 11 9 8 11 11 12 11 7 10 9 12 12 12 9 8 6 7 6 3 1 4 8 6 6 5 6 4 5 4 4 5 5 2 4 6 6
9 14 15 11 9 4 9 7 17 17 16 16 14 11 9 11 13 12 13 11 9 10 10 8 13 13 10 12 8 7 3 4 6 4 6 4 4 5 5 4 6 5 5 5 4 5 4 4 4
14 13 13 15 10 5 6 10 20 22 5 13 13 11 14 14 13 13 13 12 11 12 10 11 14 13 11 11 9 5 6 3 4 4 3 3 3 3 5 5 5 5 5 4 4 5 4 4 5
15 15 17 13 6 11 4 5 8 9 19 11 13 9 15 16 14 13 14 14 15 11 14 10 10 8 12 15 10 8 4 4 4 1 2 5 5 4 2 2 2 3 4 5 3 4 3 4 3
16 17 16 9 10 10 12 6 13 11 15 14 14 10 15 10 16 14 14 15 16 16 15 14 13 9 9 7 6 6 5 4 4 5 5 7 5 6 4 4 4 4 4 3 3 3 3 4 5
15 15 16 7 10 10 12 2 14 11 23 16 13 15 13 13 18 16 17 16 16 16 14 15 15 16 18 14 12 10 10 4 5 5 5 7 7 7 5 4 4 4 4 3 3 3 3 3 2
16 14 16 15 12 9 6 15 20 17 19 14 16 16 15 14 18 17 18 17 18 18 16 16 15 17 17 13 9 7 6 7 8 8 8 11 7 6 5 4 5 5 3 4 3 4 4 2 4
13 14 15 4 8 5 9 7 15 13 13 14 13 14 14 16 19 16 17 18 16 16 16 18 16 16 13 10 9 9 10 9 6 5 9 8 8 8 11 6 5 5 5 5 5 4 4 3 2
11 14 15 8 7 3 8 7 18 17 10 16 14 16 16 15 20 19 18 17 17 18 18 17 16 17 14 9 9 7 7 6 8 7 7 7 9 9 6 6 6 6 5 6 6 6 3 2 4
14 15 13 13 4 16 13 12 12 17 22 16 14 15 17 17 20 20 20 20 17 21 21 20 20 19 16 16 12 10 8 8 9 10 10 10 12 10 8 8 6 8 5 5 5 6 7 5 4
13 14 13 7 9 8 10 8 7 8 14 13 15 14 17 19 19 20 20 21 22 19 19 20 19 20 19 17 11 11 10 9 7 8 6 9 8 8 7 7 7 7 5 5 6 6 5 4 5
12 3 10 12 12 12 8 5 13 11 12 16 17 16 17 19 22 23 23 22 21 18 19 19 19 20 19 17 15 10 9 7 6 5 7 10 9 8 6 6 6 6 5 5 6 6 7 4 4
12 6 9 9 10 11 14 7 8 8 6 6 16 16 15 16 19 22 23 21 20 19 17 18 17 17 16 18 18 12 10 8 6 7 7 7 7 8 11 11 7 6 6 5 5 5 7 5 1
9 9 8 7 9 9 9 10 10 9 4 12 20 18 17 15 15 18 23 22 21 22 21 18 20 19 18 15 13 13 9 11 12 8 8 8 7 7 10 7 6 6 6 6 6 6 5 4 6
15 15 8 6 4 7 9 8 10 13 12 7 2 2 8 19 18 17 19 22 23 22 22 21 21 20 18 17 13 15 17 10 7 7 7 8 8 8 8 9 9 7 6 5 3 3 5 6 4
10 16 16 14 3 3 6 7 16 17 13 7 8 9 7 5 13 19 19 18 22 22 22 22 20 19 18 18 18 14 10 5 9 13 9 3 5 2 4 6 6 6 5 5 5 5 7 7 5
17 12 13 10 6 5 9 15 10 11 11 8 6 6 4 3 3 6 12 17 16 20 20 20 20 18 19 17 14 13 9 7 8 11 8 5 6 4 4 3 4 6 5 7 7 5 6 8 5
13 13 11 12 10 8 4 5 9 10 9 9 5 7 6 3 5 4 4 4 16 15 17 18 19 18 12 14 15 15 11 13 11 7 5 4 7 6 7 7 7 6 8 7 8 8 8 8 7
18 16 16 9 9 5 3 3 9 4 4 8 7 4 2 6 7 4 3 1 2 8 16 17 16 15 11 12 12 13 11 8 7 3 3 3 5 4 5 6 7 7 8 8 10 9 7 9 7
Wind_Direction
264 234 230 253 250 237 251 249 255 258 235 77 51 42 273 230 23 9 100 176 172 216 116 130 125 126 128 126 124 125 125 123 119 117 117 117 120 117 116 110 109 105 103 100 98 95 92 90 82
277 272 245 268 253 271 267 307 341 43 37 84 99 12 263 356 2 354 115 117 139 135 145 135 132 131 127 125 126 126 129 125 121 120 122 122 122 119 120 114 110 106 105 103 100 95 93 88 69
261 266 267 238 253 256 278 2 300 333 317 295 192 190 110 98 177 316 82 121 151 145 153 150 145 129 125 128 129 131 128 125 124 124 126 125 122 117 120 117 115 111 109 106 102 98 93 79 55
254 237 240 251 260 276 305 8 359 253 288 224 301 128 90 210 101 205 204 120 138 122 133 119 114 122 126 132 133 132 130 125 125 124 125 125 124 120 117 120 120 114 112 108 105 103 95 73 53
238 260 256 258 274 305 331 330 335 292 270 263 69 74 91 332 61 29 55 144 137 113 117 112 116 130 130 136 132 131 126 125 123 123 122 123 125 124 122 118 119 113 113 112 109 105 94 75 49
271 253 276 276 261 258 321 30 332 299 299 296 228 357 123 143 41 35 41 122 139 140 121 117 113 129 127 126 125 125 126 124 122 120 118 117 119 122 124 119 116 115 115 114 109 100 94 79 58
262 291 287 295 311 31 346 145 236 20 322 1 347 130 128 68 56 37 43 54 98 120 116 115 118 116 114 105 96 105 112 115 110 110 109 108 110 114 116 117 118 119 119 115 110 104 99 88 63
280 291 282 288 299 69 360 312 17 324 17 324 332 63 23 61 75 71 57 64 70 114 117 118 108 113 105 79 96 97 97 94 106 104 102 103 106 108 110 115 120 120 119 117 114 108 98 83 71
275 271 277 294 314 113 180 233 80 286 163 162 64 34 118 109 115 84 74 69 70 68 119 120 119 114 114 128 115 115 100 106 109 110 118 108 119 117 119 113 119 119 118 117 119 120 120 136 149
249 269 278 335 331 329 344 354 257 263 31 15 52 89 86 103 90 88 82 87 86 71 87 115 119 127 126 127 126 141 130 132 122 130 142 98 128 101 106 105 102 112 117 123 132 150 156 169 172
261 264 292 297 48 352 315 34 359 311 48 209 161 144 103 144 98 95 80 79 95 99 96 100 106 117 139 149 135 123 133 66 111 130 84 102 108 109 105 114 109 121 114 129 151 161 180 220 71
262 273 262 281 350 337 313 150 174 246 81 102 131 142 160 108 84 93 92 88 79 108 95 103 99 88 86 88 109 118 103 163 164 109 109 112 101 121 140 144 138 165 170 166 187 168 106 75 77
258 270 288 310 293 273 312 307 351 107 112 119 125 142 125 111 97 92 95 88 85 101 89 70 104 95 84 88 84 70 173 152 143 60 88 105 141 153 163 180 156 193 176 183 194 114 135 111 119
293 300 297 281 280 255 319 32 11 15 45 124 135 149 137 116 111 119 112 118 104 104 93 82 89 95 98 103 106 158 222 157 93 86 158 134 181 190 192 170 174 187 146 181 153 148 138 177 130
270 282 272 288 234 278 241 54 142 237 256 138 140 135 100 119 134 135 128 135 132 121 129 120 111 108 128 152 177 189 187 127 84 164 208 232 237 188 176 153 202 192 174 157 138 137 152 124 165
272 259 265 201 225 246 27 291 316 296 263 170 131 151 117 144 140 139 147 142 147 145 146 148 140 135 130 152 192 172 208 134 192 202 195 208 213 188 219 195 205 176 122 134 127 139 176 200 192
246 256 264 175 208 215 134 276 330 302 251 167 157 144 145 147 139 155 150 157 156 160 156 157 160 163 156 173 175 184 197 192 205 203 185 188 214 206 196 210 177 153 133 164 164 194 201 184 175
273 225 265 248 177 218 239 138 202 242 211 174 163 144 152 161 142 153 160 160 169 158 165 158 170 169 166 177 193 192 216 222 220 213 202 192 204 191 206 232 177 147 153 190 168 183 225 180 175
298 309 292 135 132 207 218 199 191 212 200 169 152 147 159 164 145 159 153 157 169 161 164 170 176 174 183 181 188 202 210 202 214 217 190 182 193 209 215 210 152 159 201 182 175 191 181 227 136
283 275 267 298 18 232 273 273 173 191 290 171 170 157 162 172 152 159 161 169 175 169 175 181 182 180 192 190 204 203 206 203 213 222 181 203 190 194 196 217 174 179 216 175 168 185 172 209 175
255 256 267 312 245 280 274 267 266 173 208 160 179 168 171 175 159 167 171 176 188 177 180 182 187 188 193 200 205 199 196 205 204 217 191 202 186 195 192 200 180 177 198 177 183 182 184 189 203
252 230 262 236 230 268 312 291 241 203 195 177 175 187 176 176 165 168 178 184 188 187 180 186 189 186 191 201 219 200 199 205 207 211 186 186 174 185 213 196 199 180 183 195 185 181 181 197 193
248 329 259 258 267 286 232 255 274 191 206 194 180 192 184 180 172 175 183 191 188 193 184 191 194 192 194 194 212 220 201 204 205 192 204 180 176 170 189 222 205 175 181 189 190 190 196 203 193
244 199 259 267 266 264 264 209 231 233 243 282 191 185 192 184 179 177 179 185 188 192 192 191 201 197 204 192 204 215 200 200 221 207 200 180 175 185 195 208 198 174 176 209 206 201 211 193 350
218 222 236 220 241 246 282 277 259 142 123 229 248 181 194 191 190 183 178 185 189 192 194 193 197 203 200 206 201 201 230 224 218 222 203 187 190 188 200 187 204 188 186 189 191 190 195 137 130
214 226 234 196 227 283 349 253 122 159 198 225 30 275 189 184 194 192 190 187 188 191 192 196 199 201 202 199 195 189 204 211 219 263 238 195 197 195 175 187 195 179 168 166 172 119 110 99 102
206 219 242 257 205 298 226 270 282 170 194 179 196 205 194 227 196 195 199 197 189 187 189 192 198 199 204 190 192 204 179 147 193 244 257 225 197 175 143 198 158 147 165 160 138 132 131 130 120
241 227 228 238 186 229 240 226 229 181 182 150 191 180 171 103 280 227 211 199 185 185 184 185 192 202 202 191 188 190 200 207 217 246 236 227 109 116 128 146 176 175 172 130 127 122 106 106 114
212 235 240 259 226 233 272 282 17 324 148 152 142 134 150 114 135 267 272 237 195 178 174 178 185 197 197 186 188 187 190 211 214 206 197 197 147 174 166 178 190 157 131 138 119 120 123 119 125
240 214 236 230 224 243 190 278 184 290 275 161 196 242 270 137 136 165 207 295 298 180 174 179 180 197 201 194 178 184 187 168 161 175 150 166 151 150 164 129 116 116 114 117 126 125 127 137 159